Change the Weather History Date:

Sunday, June 23, 2013

  Actual Average Record
Temperature  
Mean Temperature 68 °F -  
Max Temperature 77 °F 76 °F 95 °F (2005)
Min Temperature 60 °F 52 °F 37 °F (2004)
Cooling Degree Days 3    
Growing Degree Days 18 (Base 50)    
Moisture  
Dew Point 61 °F    
Average Humidity 84    
Maximum Humidity 100    
Minimum Humidity 53    
Precipitation  
Precipitation 0.24 in - - ()
Sea Level Pressure  
Sea Level Pressure 29.72 in    
Wind  
Wind Speed 10 mph (South)    
Max Wind Speed 23 mph    
Max Gust Speed 31 mph    
Visibility 8 miles    
Events Rain    
Averages and records for this station are not official NWS values.
T = Trace of Precipitation, MM = Missing Value Source: NWS Daily Summary

Daily Weather History Graph

Daily Weather History Graph

Search for Another Location

Airport or City:

Trip Planner

Search our weather history database for the weather conditions in past years. The results will help you decide how hot, cold, wet, or windy it might be!

Date:

Astronomy

Jun. 23, 2013 Rise Set
Actual Time 5:26 AM CDT 9:18 PM CDT
Civil Twilight 4:46 AM CDT 9:58 PM CDT
Nautical Twilight 3:52 AM CDT 10:52 PM CDT
Astronomical Twilight 2:30 AM CDT 12:13 AM CDT
Moon 9:25 PM CDT (6/23) 5:49 AM CDT (6/23)
Length of Visible Light 17h 12m
Length of Day
15h 52m
Full, 100% of the Moon is Illuminated
Jun 23
Full
Jun 29
Last Quarter
Jul 8
New
Jul 15
First Quarter
Jul 22
Full

Hourly Weather History & Observations

Time (CDT) Temp. Dew Point Humidity Pressure Visibility Wind Dir Wind Speed Gust Speed Precip Events Conditions
12:53 AM 63.0 °F 62.1 °F 97% 29.81 in 5.0 mi East 6.9 mph - N/A   Overcast
1:53 AM 63.0 °F 61.0 °F 93% 29.83 in 7.0 mi ESE 8.1 mph - N/A   Overcast
2:53 AM 63.0 °F 61.0 °F 93% 29.80 in 8.0 mi ESE 8.1 mph - N/A   Overcast
3:49 AM 62.6 °F 62.6 °F 100% 29.77 in 2.0 mi East 6.9 mph - N/A   Overcast
3:53 AM 62.1 °F 62.1 °F 100% 29.76 in 1.5 mi ESE 9.2 mph - N/A   Overcast
4:24 AM 62.6 °F 62.6 °F 100% 29.77 in 2.5 mi East 8.1 mph - N/A   Overcast
4:32 AM 62.6 °F 62.6 °F 100% 29.77 in 4.0 mi East 6.9 mph - N/A   Overcast
4:53 AM 62.1 °F 61.0 °F 96% 29.75 in 4.0 mi East 8.1 mph - N/A   Overcast
5:13 AM 62.6 °F 62.6 °F 100% 29.76 in 2.5 mi ESE 4.6 mph - 0.01 in Rain Light Rain
5:30 AM 62.6 °F 62.6 °F 100% 29.75 in 1.8 mi East 8.1 mph - 0.05 in Rain Rain
5:40 AM 62.6 °F 60.8 °F 94% 29.74 in 2.5 mi ESE 9.2 mph - 0.06 in Rain Rain
5:53 AM 62.1 °F 62.1 °F 100% 29.74 in 3.0 mi East 6.9 mph - 0.09 in Rain Rain
6:26 AM 62.6 °F 60.8 °F 94% 29.74 in 5.0 mi ESE 11.5 mph - 0.09 in Rain Rain
6:53 AM 61.0 °F 60.1 °F 97% 29.57 in 6.0 mi NE 19.6 mph 28.8 mph 0.14 in Rain Light Rain
7:40 AM 62.6 °F 60.8 °F 94% 29.67 in 10.0 mi South 4.6 mph - 0.01 in   Overcast
7:53 AM 62.1 °F 61.0 °F 96% 29.67 in 10.0 mi SSW 4.6 mph - 0.01 in   Mostly Cloudy
8:07 AM 62.6 °F 62.6 °F 100% 29.67 in 10.0 mi WSW 4.6 mph - N/A   Scattered Clouds
8:36 AM 64.4 °F 62.6 °F 94% 29.67 in 10.0 mi SSW 5.8 mph - N/A   Mostly Cloudy
8:49 AM 64.4 °F 62.6 °F 94% 29.68 in 10.0 mi South 9.2 mph - N/A   Overcast
8:53 AM 64.0 °F 62.1 °F 93% 29.68 in 10.0 mi South 8.1 mph - N/A   Overcast
9:53 AM 64.9 °F 62.1 °F 90% 29.66 in 10.0 mi SSE 3.5 mph - N/A   Overcast
10:35 AM 64.4 °F 62.6 °F 94% 29.66 in 10.0 mi ESE 4.6 mph - N/A   Overcast
10:49 AM 66.2 °F 62.6 °F 88% 29.66 in 10.0 mi ESE 3.5 mph - N/A   Overcast
10:53 AM 66.0 °F 63.0 °F 90% 29.65 in 10.0 mi ESE 4.6 mph - N/A   Overcast
11:23 AM 66.2 °F 64.4 °F 94% 29.66 in 7.0 mi Variable 4.6 mph - N/A   Overcast
11:42 AM 68.0 °F 64.4 °F 88% 29.66 in 10.0 mi SW 16.1 mph - 0.00 in   Overcast
11:51 AM 68.0 °F 64.4 °F 88% 29.66 in 8.0 mi WSW 16.1 mph 24.2 mph 0.00 in   Overcast
11:53 AM 68.0 °F 64.9 °F 90% 29.66 in 8.0 mi WSW 18.4 mph 24.2 mph 0.00 in   Overcast
12:05 PM 71.6 °F 64.4 °F 78% 29.67 in 10.0 mi WSW 20.7 mph 26.5 mph N/A   Scattered Clouds
12:21 PM 73.4 °F 64.4 °F 73% 29.67 in 10.0 mi WSW 16.1 mph 25.3 mph N/A   Mostly Cloudy
12:53 PM 72.0 °F 64.0 °F 76% 29.67 in 10.0 mi WSW 16.1 mph 26.5 mph N/A   Mostly Cloudy
1:02 PM 75.2 °F 64.4 °F 69% 29.67 in 10.0 mi WSW 18.4 mph 23.0 mph N/A   Overcast
1:22 PM 73.4 °F 62.6 °F 69% 29.68 in 10.0 mi SW 21.9 mph 29.9 mph N/A   Scattered Clouds
1:34 PM 73.4 °F 60.8 °F 65% 29.69 in 10.0 mi SW 23.0 mph 31.1 mph N/A   Mostly Cloudy
1:41 PM 73.4 °F 60.8 °F 65% 29.70 in 10.0 mi SW 20.7 mph 28.8 mph N/A   Mostly Cloudy
1:53 PM 71.1 °F 61.0 °F 70% 29.69 in 10.0 mi SW 15.0 mph 26.5 mph N/A   Mostly Cloudy
2:53 PM 73.9 °F 62.1 °F 66% 29.71 in 10.0 mi WSW 18.4 mph 27.6 mph N/A   Mostly Cloudy
3:53 PM 75.9 °F 61.0 °F 60% 29.72 in 10.0 mi WSW 13.8 mph - N/A   Partly Cloudy
4:53 PM 75.9 °F 59.0 °F 56% 29.73 in 10.0 mi WSW 19.6 mph 25.3 mph N/A   Partly Cloudy
5:53 PM 75.0 °F 59.0 °F 57% 29.73 in 10.0 mi SW 15.0 mph 23.0 mph N/A   Scattered Clouds
6:53 PM 73.9 °F 55.9 °F 53% 29.74 in 10.0 mi WSW 18.4 mph 28.8 mph N/A   Clear
7:53 PM 73.0 °F 55.0 °F 53% 29.76 in 10.0 mi WSW 13.8 mph 24.2 mph N/A   Partly Cloudy
8:53 PM 69.1 °F 55.0 °F 61% 29.79 in 10.0 mi WSW 10.4 mph - N/A   Partly Cloudy
9:53 PM 64.0 °F 55.9 °F 75% 29.82 in 10.0 mi WSW 6.9 mph - N/A   Clear
10:53 PM 61.0 °F 55.0 °F 81% 29.84 in 10.0 mi West 5.8 mph - N/A   Clear
11:53 PM 60.1 °F 55.0 °F 83% 29.84 in 10.0 mi WSW 3.5 mph - N/A   Clear